User: anonymous   Login
Location: Camp Creek
(33.9000°N, 111.8167°W)
Time: 23:11:02
(UTC-07:00)
Language:

Cosmos 1656 - Orbit

View from above orbital plane
View from above orbital plane
View from above satellite
View from above satellite

Ground track
Ground track

The orbit data is extracted from the following two-line orbital elements,

1 15755U 85042A   14302.82051184 -.00000145  00000-0 -45306-4 0  8916
2 15755 071.1132 228.5900 0033137 105.0670 255.4127 14.20311000524180
Epoch (UTC): 29 October 2014 19:41:32
Eccentricity: 0.0033137
inclination: 71.1132°
perigee height: 800 km
apogee height: 848 km
right ascension of ascending node: 228.5900°
argument of perigee: 105.0670°
revolutions per day: 14.20311000
mean anomaly at epoch: 255.4127°
orbit number at epoch: 52418

The dashed part of the orbit path shows where the satellite is in the earth's shadow,  

DLR